Location: Lafig�re
(44.4503°N, 4.0357°E)
Time: 15:37:19
(UTC+00:00)

MOS 1 - Pass Details

Date: 24 September 2020
Orbit: 878 x 891 km, 99.1° (Epoch: 25 October)

Event Time Altitude Azimuth Distance (km) Brightness Sun altitude
Exits shadow 19:13:15 21° 144° (SE) 1,877 5.6 -17.8°
Maximum altitude 19:17:01 61° 71° (ENE) 1,005 4.3 -18.4°
Drops below altitude 10° 19:22:39 10° 352° (N) 2,570 7.0 -19.4°
Sets 19:25:05 0° 349° (N) 3,513 7.8 -19.8°
